Terminal Aerodrome Forecast
Issued by NWS

Current Version | Previous Version | Graphics & Text | Print | Product List | Glossary On
Versions: 1 2 3 4 5 6 7 8 9 10 11 12 13 14 15 16 17 18
000
FTUS41 KILN 140732 AAA
TAFLCK
TAF AMD
KLCK 140732Z 1408/1506 04003KT P6SM BKN140 OVC250
     FM141500 18006KT P6SM SCT050 BKN250
     FM150000 00000KT P6SM SCT090
     FM150300 00000KT 3SM BR SCT005 BKN090=

USA.gov is the U.S. government's official web portal to all federal, state and local government web resources and services.